Regional Weather Roundup
Issued by NWS

Home | Current Version | Previous Version | Graphics & Text | Print | Product List | Glossary On
Versions: 1 2 3 4 5 6 7 8 9 10 11 12 13 14 15 16 17 18 19 20 21 22 23 24 25 26 27 28 29 30 31 32 33 34 35 36 37 38 39 40 41 42 43 44 45 46 47 48 49 50
000
ASUS43 KOAX 250010
RWRNE

WEATHER ROUNDUP FOR NEBRASKA
NATIONAL WEATHER SERVICE OMAHA NE
700 PM CDT FRI APR 24 2015

NOTES: SATELLITE DATA IS BEING USED TO AUGMENT CLOUD COVER ABOVE
       12000 FEET.
       "FAIR" INDICATES FEW OR NO CLOUDS BELOW 12,000 FEET WITH NO
       SIGNIFICANT WEATHER AND/OR OBSTRUCTIONS TO VISIBILITY.

  * THESE STATIONS DO NOT REPORT WEATHER SUCH AS RAIN...SNOW OR FOG.

NEZ001>004-019>022-054>056-250100-
NEBRASKA PANHANDLE

CITY           SKY/WX    TMP DP  RH WIND       PRES   REMARKS
SCOTTSBLUFF    CLOUDY    60  38  43 S20G28    29.58R
6HR MIN TEMP:  61; 6HR MAX TEMP:  74; 6HR PCP: TRACE;

ALLIANCE       CLOUDY    53  45  74 N10       29.54F
6HR MIN TEMP:  50; 6HR MAX TEMP:  70; 6HR PCP:  0.10;

CHADRON        CLOUDY    63  41  44 NE12G21   29.54F
6HR MIN TEMP:  61; 6HR MAX TEMP:  70;

KIMBALL        CLOUDY    54  38  53 W16       29.61S
SIDNEY         CLOUDY    59  38  45 NW18G32   29.59R
6HR MIN TEMP:  59; 6HR MAX TEMP:  70;

$$

NEZ057>060-069>072-079>082-250100-
SOUTHWEST NEBRASKA

CITY           SKY/WX    TMP DP  RH WIND       PRES   REMARKS
IMPERIAL       CLOUDY    67  40  37 CALM      29.53R
6HR MIN TEMP:  64; 6HR MAX TEMP:  71;

LEXINGTON      CLOUDY    66  56  68 E15       29.50F
MCCOOK         CLOUDY    67  51  56 E6        29.50S
6HR MIN TEMP:  66; 6HR MAX TEMP:  70;

OGALLALA       CLOUDY    63  53  71 SW5       29.52R
$$

NEZ005>010-023>029-035>040-094-250100-
NORTH CENTRAL NEBRASKA

CITY           SKY/WX    TMP DP  RH WIND       PRES   REMARKS
VALENTINE      CLOUDY    73  37  27 SE9       29.47R
6HR MIN TEMP:  71; 6HR MAX TEMP:  79;

AINSWORTH      CLOUDY    67  44  43 SE16      29.50R
BROKEN BOW     MOSUNNY   69  53  56 SE13G24   29.49F
6HR MIN TEMP:  65; 6HR MAX TEMP:  73;

O`NEILL        CLOUDY    68  54  60 SW5       29.51R
ORD            MOSUNNY   69  53  56 SE10      29.50S
6HR MIN TEMP:  67; 6HR MAX TEMP:  72;

THEDFORD       RAIN      56  45  66 NE20G25   29.51R
$$

NEZ041-046>049-061>064-073>077-083>087-250100-
SOUTH CENTRAL NEBRASKA

CITY           SKY/WX    TMP DP  RH WIND       PRES   REMARKS
GRAND ISLAND   CLOUDY    61  56  83 SE10      29.54F
6HR MIN TEMP:  61; 6HR MAX TEMP:  66;

AURORA         CLOUDY    61  57  87 SE12      29.54F
HASTINGS       CLOUDY    60  56  86 SE13      29.53F
6HR MIN TEMP:  60; 6HR MAX TEMP:  64;

HEBRON         CLOUDY    58  55  91 E6        29.55S FOG
HOLDREGE       PTSUNNY   63  55  76 E14       29.52R
KEARNEY *      CLOUDY    63  55  77 SE15      29.53S
YORK           CLOUDY    61  55  82 SE12      29.55F
$$

NEZ011>018-030>034-042>045-250100-
NORTHEAST NEBRASKA

CITY           SKY/WX    TMP DP  RH WIND       PRES   REMARKS
NORFOLK        PTSUNNY   67  55  65 S16       29.53S
6HR MIN TEMP:  67; 6HR MAX TEMP:  74;

ALBION         MOSUNNY   66  54  65 S15G21    29.52F
BLAIR          CLOUDY    62  51  66 S13G18    29.59S
COLUMBUS *     PTSUNNY   64  54  68 S15       29.56F
FREMONT        CLOUDY    64  52  65 SE13G20   29.58F
TEKAMAH        CLOUDY    68  52  56 SE18      29.57S
6HR MIN TEMP:  67; 6HR MAX TEMP:  72; 6HR PCP: TRACE;

WAYNE          PTSUNNY   70  54  57 S17       29.54S
$$

NEZ050>053-065>068-078-088>093-250100-
SOUTHEAST NEBRASKA

CITY           SKY/WX    TMP DP  RH WIND       PRES   REMARKS
LINCOLN        CLOUDY    61  54  77 S9        29.58F
6HR MIN TEMP:  61; 6HR MAX TEMP:  66;

OMAHA EPPLEY   CLOUDY    63  51  65 SE18G25   29.59F
6HR MIN TEMP:  63; 6HR MAX TEMP:  70;

BEATRICE       CLOUDY    60  55  83 E7        29.56F
FALLS CITY     CLOUDY    62  54  74 SE8       29.58F
6HR MIN TEMP:  59; 6HR MAX TEMP:  63;

NEBRASKA CITY  CLOUDY    58  51  78 S8        29.60F
PLATTSMOUTH    CLOUDY    59  52  77 SE10      29.61F
$$

NEZ044-045-051>053-067-250100-
OMAHA AREA

CITY           SKY/WX    TMP DP  RH WIND       PRES   REMARKS
OMAHA EPPLEY   CLOUDY    63  51  65 SE18G25   29.59F
6HR MIN TEMP:  63; 6HR MAX TEMP:  70;

BLAIR          CLOUDY    62  51  66 S13G18    29.59S
FREMONT        CLOUDY    64  52  65 SE13G20   29.58F
MILLARD        CLOUDY    62  52  70 SE9       29.59F
OFFUTT AFB     CLOUDY    61  52  72 SE14      29.59F
PLATTSMOUTH    CLOUDY    59  52  77 SE10      29.61F
WAHOO          CLOUDY    63  51  66 SE16      29.58S
$$


USA.gov is the U.S. government's official web portal to all federal, state and local government web resources and services.